Regional Weather Roundup
Issued by NWS Raleigh/Durham, NC

Home | Current Version | Previous Version | Text Only | Print | Product List | Glossary On
Versions: 1 2 3 4 5 6 7 8 9 10 11 12 13 14 15 16 17 18 19 20 21 22 23 24 25 26 27 28 29 30 31 32 33 34 35 36 37 38 39 40 41 42 43 44 45 46 47 48 49 50
000
ASUS42 KRAH 061910
RWRRAH
NORTH CAROLINA WEATHER ROUNDUP
NATIONAL WEATHER SERVICE RALEIGH NC
300 PM EDT FRI MAY 06 2016

NOTE: "FAIR" INDICATES FEW OR NO CLOUDS BELOW 12,000 FEET WITH NO
SIGNIFICANT WEATHER AND/OR OBSTRUCTIONS TO VISIBILITY.

NCZ001-053-055-056-065-067-062000-
WESTERN NORTH CAROLINA

CITY           SKY/WX    TMP DP  RH WIND       PRES   REMARKS
ASHEVILLE      MOSUNNY   61  40  45 N17G24    29.90S
JEFFERSON      CLOUDY    51  37  60 NW14G25   29.86S
MORGANTON      MOSUNNY   64  39  39 N14G21    29.90S
HICKORY        PTSUNNY   62  41  46 NW13G25   29.83S
RUTHERFORDTON  MOSUNNY   67  38  34 N16G25    29.86S
MOUNT AIRY     CLOUDY    63  44  48 N8G17     29.81S
BOONE          MOSUNNY   49  37  62 NW13G22   29.88S
$$

NCZ021-022-025-041-071-084-088-062000-
CENTRAL NORTH CAROLINA

CITY           SKY/WX    TMP DP  RH WIND       PRES   REMARKS
CHARLOTTE      PTSUNNY   66  43  43 NW15G23   29.82S
GREENSBORO     LGT RAIN  64  43  46 NW14G21   29.76S
WINSTON-SALEM  CLOUDY    63  42  46 NW14G25   29.79S
RALEIGH-DURHAM PTSUNNY   63  49  60 NW10G18   29.75S
FORT BRAGG     LGT RAIN  65  49  56 NW17G25   29.76R
FAYETTEVILLE   MOSUNNY   68  48  48 N12       29.75S
BURLINGTON     MOSUNNY   67  52  58 NW12      29.75F
LAURINBURG     LGT RAIN  64  54  69 NE6       29.78R
$$

NCZ011-015-027-028-043-044-047-080-103-062000-
NORTHEASTERN NORTH CAROLINA

CITY           SKY/WX    TMP DP  RH WIND       PRES   REMARKS
ROCKY MT-WILSO MOSUNNY   63  52  67 N10       29.72S
GREENVILLE     CLOUDY    61  54  77 W9        29.75S
WASHINGTON     PTSUNNY   62  49  62 NW5       29.71S
ELIZABETH CITY CLOUDY    59  52  77 VRB5      29.70F
MANTEO         PTSUNNY   59  53  79 NW8       29.71R
CAPE HATTERAS  PTSUNNY   60  51  72 SW12      29.72R
$$

NCZ078-087-090-091-093-098-101-062000-
SOUTHEASTERN NORTH CAROLINA

CITY           SKY/WX    TMP DP  RH WIND       PRES   REMARKS
LUMBERTON      CLOUDY    68  51  54 VRB6      29.76S
GOLDSBORO      LGT RAIN  59  59 100 NW7       29.72S FOG
KINSTON        MOSUNNY   63  52  67 NW6       29.74R
KENANSVILLE    PTSUNNY   64  51  61 CALM      29.76S
NEW BERN       PTSUNNY   63  50  62 W8        29.73S
CHERRY POINT   PTSUNNY   60  50  69 SW12      29.74R
BEAUFORT       PTSUNNY   62  49  62 W6        29.73R
JACKSONVILLE   PTSUNNY   66  49  54 W14G21    29.73S
WILMINGTON     PTSUNNY   66  49  54 NW15G23   29.76S
$$




USA.gov is the U.S. government's official web portal to all federal, state and local government web resources and services.